Regional Weather Roundup
Issued by NWS

Home | Current Version | Previous Version | Graphics & Text | Print | Product List | Glossary Off
Versions: 1 2 3 4 5 6 7 8 9 10 11 12 13 14 15 16 17 18 19 20 21 22 23 24 25 26 27 28 29 30 31 32 33 34 35 36 37 38 39 40 41 42 43 44 45 46 47 48 49 50

000
ASUS43 KTOP 210508
RWRKS

WEATHER ROUNDUP FOR KANSAS
NATIONAL WEATHER SERVICE GOODLAND KS
1200 AM CDT THU SEP 21 2017

NOTE:  "FAIR" INDICATES FEW OR NO CLOUDS BELOW 12,000 FEET WITH NO
SIGNIFICANT WEATHER AND/OR OBSTRUCTIONS TO VISIBILITY.

KSZ001>006-013>018-027>032-041>047-210600-
NORTHWEST KANSAS

CITY           SKY/WX    TMP DP  RH WIND       PRES   REMARKS
GOODLAND       CLEAR     51  35  54 SE7       29.89F
HAYS           CLEAR     63  52  67 NE6       29.87S
HILL CITY      CLEAR     58  40  51 E6        29.88F
RUSSELL        CLEAR     66  55  67 NE6       29.85S
$$

KSZ061>065-074>080-084>089-210600-
SOUTHWEST KANSAS

CITY           SKY/WX    TMP DP  RH WIND       PRES   REMARKS
DODGE CITY     CLEAR     61  48  62 SE7       29.88S
ELKHART          N/A     62  43  50 S12         N/A
GARDEN CITY    CLEAR     60  46  59 SE9       29.88S
GREAT BEND     CLEAR     68  55  63 E5        29.86S
LIBERAL        CLEAR     58  48  69 SW6       29.90R
PRATT          CLEAR     72  55  54 E5        29.86S
$$

KSZ066>073-081>083-090>101-210600-
SOUTHEAST KANSAS

CITY           SKY/WX    TMP DP  RH WIND       PRES   REMARKS
CHANUTE        CLOUDY    80  72  76 S8        29.88R
COFFEYVILLE    PTCLDY    79  72  79 S10       29.87R
HUTCHINSON     CLEAR     73  61  65 SE3       29.84R
MEDICINE LODGE   N/A     75  63  66 SE6       29.84R
NEWTON         PTCLDY    76  70  82 SE9       29.86R
WICHITA INTL   PTCLDY    78  72  81 SE9       29.84R
WICHITA JABRA  PTCLDY    78  73  84 S7        29.85R
WICHITA MCCONL MOCLDY    79  70  74 S8        29.85R
WINFIELD       CLEAR     80  74  81 S12       29.86R
$$

KSZ007>012-019>026-033>040-048>060-102>105-210600-
NORTHEAST KANSAS

CITY           SKY/WX    TMP DP  RH WIND       PRES   REMARKS
CONCORDIA      MOCLDY    65  59  81 E5        29.86S
EMPORIA        CLEAR     77  71  82 S9        29.85R
LAWRENCE       PTCLDY    77  74  90 E6        29.84R
MANHATTAN      MOCLDY    74  68  81 NE3       29.83S
MARYSVILLE     CLEAR     66  59  77 NE3       29.87S
OLATHE IND     PTCLDY    77  73  87 S7        29.88R
OLATHE EXE     MOCLDY    76  74  93 S6        29.88R
SALINA         CLEAR     76  61  59 E3        29.83S
TOPEKA BILLARD PTCLDY    77  76  96 CALM      29.84R
TOPEKA FORBES  CLEAR     78  74  87 S5        29.85R
$$




USA.gov is the U.S. government's official web portal to all federal, state and local government web resources and services.